Weather History for Minneapolis Crystal, MN

Change the Weather History Date:

Friday, October 11, 2013

  Actual Average Record
Temperature  
Mean Temperature 66 °F -  
Max Temperature 75 °F 58 °F 80 °F (2010)
Min Temperature 57 °F 37 °F 28 °F (2000)
Cooling Degree Days 1    
Growing Degree Days 16 (Base 50)    
Moisture  
Dew Point 54 °F    
Average Humidity 64    
Maximum Humidity 88    
Minimum Humidity 46    
Precipitation  
Precipitation 0.03 in - - ()
Sea Level Pressure  
Sea Level Pressure 29.72 in    
Wind  
Wind Speed 13 mph (SSE)    
Max Wind Speed 24 mph    
Max Gust Speed 39 mph    
Visibility 10 miles    
Events Rain , Thunderstorm    
Averages and records for this station are not official NWS values.
T = Trace of Precipitation, MM = Missing Value Source: NWS Daily Summary

Daily Weather History Graph

Daily Weather History Graph

Search for Another Location

Airport:

Trip Planner

Search our weather history database for the weather conditions in past years. The results will help you decide how hot, cold, wet, or windy it might be!

Date:

Astronomy

Oct. 11, 2013 Rise Set
Actual Time 7:24 AM CDT 6:34 PM CDT
Civil Twilight 6:54 AM CDT 7:04 PM CDT
Nautical Twilight 6:20 AM CDT 7:38 PM CDT
Astronomical Twilight 5:46 AM CDT 8:12 PM CDT
Moon 2:15 PM CDT (10/11) No Moon Set
Length of Visible Light 12h 09m
Length of Day
11h 10m
Waxing Crescent, 47% of the Moon is Illuminated
Oct 11
Waxing Crescent
Oct 11
First Quarter
Oct 18
Full
Oct 26
Last Quarter
Nov 3
New

Hourly Weather History & Observations

Time (CDT) Temp. Dew Point Humidity Pressure Visibility Wind Dir Wind Speed Gust Speed Precip Events Conditions
12:53 AM 63.0 °F 48.9 °F 60% 29.86 in 10.0 mi SSE 11.5 mph - N/A   Clear
1:53 AM 62.1 °F 50.0 °F 65% 29.86 in 10.0 mi SSE 9.2 mph - N/A   Clear
2:53 AM 61.0 °F 50.0 °F 67% 29.86 in 10.0 mi SSE 11.5 mph - N/A   Clear
3:53 AM 60.1 °F 50.0 °F 69% 29.86 in 10.0 mi SSE 8.1 mph - N/A   Clear
4:53 AM 60.1 °F 50.0 °F 69% 29.86 in 10.0 mi SE 9.2 mph - N/A   Clear
5:53 AM 57.9 °F 50.0 °F 75% 29.86 in 10.0 mi SE 6.9 mph - N/A   Clear
6:53 AM 57.9 °F 50.0 °F 75% 29.84 in 10.0 mi SE 9.2 mph - N/A   Clear
7:53 AM 59.0 °F 51.1 °F 75% 29.83 in 10.0 mi SE 9.2 mph - N/A   Clear
8:53 AM 61.0 °F 51.1 °F 70% 29.81 in 10.0 mi SE 9.2 mph 21.9 mph N/A   Clear
9:53 AM 64.0 °F 52.0 °F 65% 29.79 in 10.0 mi SE 17.3 mph 21.9 mph N/A   Clear
10:53 AM 66.9 °F 53.1 °F 61% 29.76 in 10.0 mi SE 17.3 mph 26.5 mph N/A   Clear
11:53 AM 71.1 °F 54.0 °F 55% 29.72 in 10.0 mi ESE 18.4 mph 35.7 mph N/A   Clear
12:53 PM 75.0 °F 53.1 °F 46% 29.69 in 10.0 mi SE 18.4 mph 35.7 mph N/A   Clear
1:53 PM 73.0 °F 53.1 °F 49% 29.67 in 10.0 mi SSE 24.2 mph 35.7 mph N/A   Partly Cloudy
2:53 PM 72.0 °F 52.0 °F 49% 29.63 in 10.0 mi SE 19.6 mph 39.1 mph N/A   Partly Cloudy
3:53 PM 73.9 °F 53.1 °F 48% 29.62 in 10.0 mi SE 20.7 mph 36.8 mph N/A   Clear
4:53 PM 73.0 °F 53.1 °F 49% 29.63 in 10.0 mi SSE 21.9 mph 31.1 mph N/A   Overcast
5:53 PM 73.9 °F 52.0 °F 46% 29.63 in 10.0 mi SSE 19.6 mph 32.2 mph N/A   Overcast
6:53 PM 73.9 °F 52.0 °F 46% 29.65 in 10.0 mi South 23.0 mph 29.9 mph N/A   Overcast
7:53 PM 72.0 °F 53.1 °F 51% 29.64 in 10.0 mi SSE 18.4 mph 28.8 mph N/A   Overcast
8:53 PM 70.0 °F 55.9 °F 61% 29.62 in 10.0 mi SSE 20.7 mph 29.9 mph N/A   Clear
9:53 PM 70.0 °F 57.0 °F 63% 29.62 in 10.0 mi SSE 15.0 mph 29.9 mph N/A   Partly Cloudy
10:10 PM 69.8 °F 57.2 °F 64% 29.63 in 10.0 mi South 15.0 mph 26.5 mph N/A Thunderstorm Mostly Cloudy
10:25 PM 69.8 °F 60.8 °F 73% 29.64 in 8.0 mi South 16.1 mph 29.9 mph 0.00 in Rain Light Rain
10:45 PM 66.2 °F 60.8 °F 83% 29.66 in 5.0 mi WSW 10.4 mph 18.4 mph 0.03 in Rain , Thunderstorm Light Rain
10:53 PM 64.0 °F 60.1 °F 87% 29.65 in 10.0 mi SSW 9.2 mph 17.3 mph 0.03 in Rain , Thunderstorm Light Rain
10:59 PM 64.4 °F 60.8 °F 88% 29.66 in 10.0 mi South 10.4 mph - 0.00 in Rain Light Rain
11:53 PM 62.1 °F 57.0 °F 84% 29.68 in 10.0 mi South 9.2 mph - 0.00 in   Partly Cloudy